Home   Weather   Welland   Past weeks

Flag for Canada Past Weather in Welland, Ontario, Canada — Yesterday and Last 2 Weeks

Now
31 °F

Chilly.


Feels Like: 24 °F
Forecast: N/A
Wind: 8 mph from West

Location: Port Colborne Airport

Current Time: Jan 19, 2017 at 6:37:56 pm

Latest Report: Jan 19, 2017 at 6:00 pm


Visibility: N/A

Pressure: 30.06 "Hg

Humidity: 98%

Dew Point: 31 °F

Location of WellandLocation

Past Weather in Welland — Graph

°F

Welland Temperature Yesterday

Maximum temperature yesterday: 36 °F (at 2:00 am)
Minimum temperature yesterday: 33 °F (at 8:00 am)
Average temperature yesterday: 35 °F

High & Low Weather Summary for the Past Weeks

 TemperatureHumidityPressure
High50 °F (Jan 11, 5:00 pm)100% (Jan 18, 8:00 am)30.78 "Hg (Jan 18, 8:00 am)
Low10 °F (Jan 6, 8:00 am)38% (Jan 11, 5:00 pm)29.55 "Hg (Jan 11, 12:00 am)
Average27 °F72%30.19 "Hg
* Reported Jan 4 5:00 pm — Jan 19 5:00 pm, Welland, Weather by CustomWeather, © 2017

Note: Actual official high and low records may vary slightly from our data, if they occured in-between our weather recording intervals... More about our weather records

Advertising

Welland Weather History for the Previous 24 Hours

Scroll right to see more
 ConditionsComfort  
Time TempWeatherWind HumidityBarometerVisibility
5:00 pm
Thu, Jan 19
33 °FChilly.9 mph91%30.05 "HgN/A
4:00 pm31 °FChilly.8 mph98%30.02 "HgN/A
3:00 pm31 °FChilly.9 mph98%30.02 "HgN/A
2:00 pm31 °FChilly.12 mph98%30.04 "HgN/A
1:00 pm31 °FChilly.9 mph96%30.06 "HgN/A
12:00 pm33 °FChilly.10 mph91%30.09 "HgN/A
11:00 am33 °FChilly.13 mph90%30.12 "HgN/A
10:00 am33 °FChilly.18 mph90%30.12 "HgN/A
9:00 am34 °FChilly.20 mph88%30.11 "HgN/A
8:00 am34 °FChilly.22 mph89%30.10 "HgN/A
7:00 am34 °FChilly.22 mph88%30.08 "HgN/A
6:00 am34 °FChilly.23 mph89%30.07 "HgN/A
5:00 am34 °FChilly.24 mph90%30.05 "HgN/A
4:00 am34 °FChilly.20 mph91%30.05 "HgN/A
3:00 am35 °FChilly.22 mph90%30.07 "HgN/A
2:00 am35 °FChilly.22 mph95%30.06 "HgN/A
1:00 am35 °FChilly.22 mph94%30.04 "HgN/A
12:00 am35 °FChilly.28 mph95%30.04 "HgN/A
11:00 pm
Wed, Jan 18
35 °FChilly.24 mph95%30.04 "HgN/A
10:00 pm35 °FChilly.20 mph94%30.03 "HgN/A
9:00 pm35 °FChilly.17 mph95%30.03 "HgN/A
8:00 pm35 °FChilly.22 mph95%30.05 "HgN/A
7:00 pm33 °FChilly.20 mph100%30.04 "HgN/A
6:00 pm35 °FChilly.18 mph95%30.06 "HgN/A
Weather by CustomWeather, © 2017

See weather overviewHow to use our weather pages